[[{"header":{"parameterUnit":"m.s-1","parameterCategory":1,"la1":30.2991,"la2":30.254,"lo1":-89.0895,"lo2":-89.0444,"dy":0.0017,"dx":0.0017,"nx":28,"ny":28,"refTime":"2023-10-22T21:00:00:Z","depth":0,"parameterNumber":2,"parameterNumberName":"U-component_of_WINDS"},"data":[0,0,0,0,0,0,0,0,0,0,0,0,0,0,0,0,0,0,0,0,0,0,0,0,0,0,0,0,0,0,0,0,0,0,0,0,0,0,0,0,0,0,0,0,0,0,0,0,0,0,0,0,0,0,0,0,0,0,0.5833,0.5834,0,0.5946,0.5947,0.5948,0.5983,0.5982,0.5982,0.5981,0.6099,0.6102,0.6106,0,0,0,0,0,0,0,0,0,0,0,0,0,0.5649,0.5653,0.5833,0.5834,0.5836,0.5946,0.5947,0.5949,0.5983,0.5982,0.5982,0.5981,0.6097,0.6102,0.6106,0,0,0,0,0,0,0,0,0,0,0,0,0,0.5742,0.5654,0.5833,0.5866,0.587,0.5945,0.5947,0.5949,0.5983,0.5982,0.5982,0.5981,0.6096,0.6101,0.6107,0.6157,0,0,0.6123,0.6126,0,0,0,0,0,0,0,0,0.5737,0.5749,0.586,0.5864,0.5869,0.595,0.5925,0.6019,0.5983,0.594,0.5981,0.598,0.605,0.6059,0.6082,0.6163,0.6168,0.6124,0.6127,0.613,0.6131,0,0,0,0,0,0,0,0.5731,0.5744,0.5878,0.5861,0.5867,0.5876,0.5888,0.5943,0.5999,0.5944,0.5947,0.596,0.6052,0.6077,0.6085,0.6169,0.6124,0.6129,0.6132,0.6134,0.6298,0.6299,0,0,0,0,0,0,0.5718,0.5739,0.5874,0.5881,0.5799,0.588,0.5894,0.5924,0.5998,0.6008,0.596,0.5961,0.6068,0.6079,0.6089,0.6154,0.6129,0.6135,0.6138,0.6297,0.6298,0.6299,0,0,0,0,0,0,0.5714,0.573,0.587,0.5811,0.5829,0.5884,0.5918,0.5927,0.5952,0.601,0.602,0.5975,0.6068,0.6082,0.614,0.6158,0.6137,0.6142,0.6296,0.6297,0.6299,0.6282,0,0,0,0,0,0,0.5709,0.5728,0.5747,0.5811,0.5832,0.5918,0.5919,0.593,0.5961,0.5963,0.6027,0.6037,0.6068,0.6132,0.6145,0.6165,0.6146,0.6294,0.6296,0.6298,0.6282,0.6283,0.6285,0,0,0,0,0,0.5702,0.5739,0.5748,0.5764,0.5857,0.5919,0.5931,0.5966,0.5962,0.5982,0.602,0.6035,0.6154,0.6137,0.6153,0.6175,0.6293,0.6296,0.6298,0.6281,0.6283,0.6285,0,0,0,0,0,0,0.5676,0.5747,0.5759,0.5817,0.5862,0.5924,0.5951,0.5967,0.6014,0.6013,0.6055,0.6069,0.6125,0.6156,0.6136,0.6228,0.6224,0.623,0.6206,0.6208,0.621,0.6201,0.6151,0,0,0,0,0,0.5677,0.572,0.5781,0.5826,0.5848,0.5895,0.5923,0.5946,0.5994,0.6014,0.6055,0.6102,0.615,0.6181,0.6228,0.6286,0.6301,0.6309,0.6311,0.6312,0.6316,0.635,0.6354,0.6307,0.6307,0.6307,0,0,0.568,0.5724,0.5749,0.5822,0.5859,0.5904,0.5911,0.5958,0.5991,0.6021,0.6078,0.6111,0.6166,0.6224,0.6252,0.6252,0.6332,0.6315,0.6315,0.6319,0.6353,0.6357,0.6361,0.6309,0.6309,0.6308,0,0,0.5707,0.5745,0.5787,0.5824,0.588,0.5912,0.5922,0.5983,0.6005,0.6064,0.6087,0.6128,0.621,0.6248,0.6278,0.6321,0.6336,0.6335,0.6343,0.6375,0.6379,0.6383,0.6398,0.6403,0.6339,0.6339,0.6339,0,0.5703,0.5771,0.5807,0.5853,0.5884,0.5913,0.5956,0.5991,0.606,0.6081,0.608,0.6183,0.6222,0.629,0.6301,0.6324,0.6337,0.6328,0.6376,0.6379,0.6383,0.6399,0.6404,0.6339,0.6339,0.6339,0.6339,0,0.5764,0.581,0.5838,0.5903,0.5938,0.5982,0.6026,0.6057,0.6077,0.6109,0.6169,0.6216,0.6274,0.6292,0.6312,0.6363,0.6361,0.6367,0.6364,0.6387,0.6402,0.6408,0.6338,0.6338,0.6338,0.6338,0,0,0.5778,0.5863,0.5872,0.5902,0.5967,0.6004,0.605,0.6106,0.6132,0.6179,0.6219,0.6288,0.6294,0.6328,0.6353,0.6381,0.6412,0.6384,0.6386,0.6388,0.6472,0.6468,0.6474,0.6423,0.6424,0.6425,0.6468,0,0.5813,0.5896,0.593,0.5997,0.6041,0.6069,0.6109,0.6154,0.6185,0.6227,0.6262,0.631,0.6314,0.6335,0.6364,0.6402,0.643,0.64,0.6461,0.6463,0.6447,0.6482,0.6477,0.6515,0.6474,0.6475,0.6476,0,0.5866,0.5913,0.5984,0.6044,0.6064,0.6099,0.6154,0.6193,0.6244,0.6265,0.6303,0.6327,0.6377,0.6371,0.6441,0.6419,0.6447,0.6469,0.6472,0.6479,0.6471,0.649,0.6527,0.6533,0.6485,0.6485,0.6484,0,0.5869,0.595,0.6004,0.6029,0.6099,0.6124,0.6155,0.6205,0.6236,0.6284,0.6306,0.6359,0.6388,0.6429,0.6467,0.6458,0.6533,0.653,0.6553,0.6552,0.6567,0.6566,0.661,0.6584,0.6584,0.6584,0.6584,0,0.5906,0.5948,0.6006,0.6039,0.6088,0.6127,0.6175,0.6207,0.6252,0.6292,0.632,0.6357,0.6404,0.6448,0.6478,0.6531,0.6544,0.6563,0.6571,0.6561,0.6558,0.6579,0.6578,0.6586,0.6585,0.6585,0.6585,0,0.5918,0.5958,0.6018,0.608,0.6097,0.613,0.6184,0.6217,0.625,0.63,0.6314,0.6366,0.6419,0.646,0.6529,0.6549,0.6606,0.6614,0.6588,0.6592,0.6613,0.661,0.6672,0.6682,0.6649,0.665,0.665,0,0.5938,0.5972,0.6037,0.6066,0.6096,0.6142,0.6175,0.6215,0.6248,0.6309,0.6335,0.639,0.6436,0.6519,0.6563,0.6616,0.6626,0.6644,0.6634,0.6623,0.6626,0.6624,0.6628,0.6645,0.6645,0.6645,0.6645,0,0.597,0.5989,0.6034,0.6087,0.6125,0.6169,0.6214,0.6236,0.6284,0.632,0.6374,0.6409,0.648,0.6534,0.6592,0.6624,0.6643,0.6648,0.6656,0.6646,0.663,0.6639,0.6592,0.6646,0.6646,0.6646,0.6646,0.6646,0.5988,0.6019,0.607,0.612,0.6158,0.6199,0.6233,0.627,0.6316,0.6376,0.6397,0.6453,0.6504,0.6584,0.6617,0.6661,0.6662,0.6674,0.6677,0.6679,0.6678,0.6623,0.6672,0.6672,0.6672,0.6672,0.6672,0,0.6021,0.6056,0.6102,0.6163,0.6203,0.6216,0.6267,0.6299,0.6347,0.6393,0.6438,0.6501,0.6553,0.6602,0.6657,0.6684,0.6694,0.6697,0.6695,0.6703,0.6674,0.6662,0.6688,0.6688,0.6688,0.6688,0.6688,0.6688,0.6044,0.6098,0.6122,0.6195,0.623,0.6284,0.6312,0.635,0.6387,0.6455,0.6499,0.653,0.6578,0.6637,0.6686,0.6699,0.6718,0.6719,0.6734,0.6707,0.6705,0.6703,0.6691,0.6723,0.6723,0.6759,0.676,0.676]},{"header":{"parameterUnit":"m.s-1","parameterCategory":1,"la1":30.2991,"la2":30.254,"lo1":-89.0895,"lo2":-89.0444,"dy":0.0017,"dx":0.0017,"nx":28,"ny":28,"refTime":"2023-10-22T21:00:00:Z","depth":0,"parameterNumber":3,"parameterNumberName":"V-component_of_WINDS"},"data":[0,0,0,0,0,0,0,0,0,0,0,0,0,0,0,0,0,0,0,0,0,0,0,0,0,0,0,0,0,0,0,0,0,0,0,0,0,0,0,0,0,0,0,0,0,0,0,0,0,0,0,0,0,0,0,0,0,0,2.0267,2.0267,0,2.0248,2.0248,2.0248,2.0224,2.0224,2.0223,2.0223,2.02,2.02,2.02,0,0,0,0,0,0,0,0,0,0,0,0,0,2.028,2.028,2.0267,2.0267,2.0267,2.0248,2.0248,2.0248,2.0224,2.0224,2.0223,2.0223,2.02,2.02,2.0199,0,0,0,0,0,0,0,0,0,0,0,0,0,2.0269,2.028,2.0267,2.0253,2.0251,2.0248,2.0248,2.0248,2.0224,2.0224,2.0223,2.0223,2.02,2.02,2.0199,2.0208,0,0,2.0198,2.0198,0,0,0,0,0,0,0,0,2.027,2.0269,2.0255,2.0254,2.0252,2.0238,2.0244,2.0234,2.0225,2.0234,2.0223,2.0223,2.0213,2.0211,2.0209,2.0207,2.0206,2.0198,2.0198,2.0198,2.0198,0,0,0,0,0,0,0,2.0271,2.027,2.0259,2.0255,2.0253,2.0247,2.0244,2.0242,2.0227,2.0234,2.0232,2.023,2.0212,2.0209,2.0208,2.0205,2.0198,2.0198,2.0198,2.0197,2.0211,2.0212,0,0,0,0,0,0,2.0274,2.027,2.026,2.0259,2.026,2.0247,2.0244,2.0243,2.0227,2.0224,2.0231,2.0229,2.021,2.0209,2.0207,2.0218,2.0198,2.0197,2.0197,2.0211,2.0211,2.0212,0,0,0,0,0,0,2.0275,2.0273,2.0261,2.0264,2.0262,2.0247,2.0246,2.0243,2.024,2.0225,2.0221,2.0231,2.021,2.0208,2.0209,2.0216,2.0197,2.0197,2.021,2.0211,2.0212,2.0238,0,0,0,0,0,0,2.0275,2.0274,2.0277,2.0265,2.0262,2.0263,2.0246,2.0243,2.024,2.0238,2.0224,2.0221,2.0209,2.0209,2.0208,2.0216,2.0196,2.0209,2.021,2.0211,2.0236,2.0239,2.0242,0,0,0,0,0,2.0276,2.0284,2.0277,2.0276,2.0266,2.0264,2.0262,2.0249,2.0241,2.0244,2.0234,2.0222,2.0216,2.021,2.0208,2.0215,2.0209,2.021,2.0211,2.0235,2.0239,2.0242,0,0,0,0,0,0,2.0296,2.0282,2.0275,2.0279,2.0273,2.026,2.0263,2.0254,2.0249,2.0247,2.023,2.0227,2.023,2.0222,2.0216,2.0224,2.021,2.0212,2.0229,2.0232,2.0235,2.0237,2.0196,0,0,0,0,0,2.0301,2.0301,2.0289,2.0294,2.0291,2.0278,2.0276,2.0267,2.026,2.0256,2.0246,2.0239,2.0235,2.0233,2.0229,2.0235,2.0232,2.0239,2.0242,2.0245,2.0246,2.025,2.0254,2.0217,2.0217,2.0217,0,0,2.0311,2.0304,2.0305,2.0298,2.0292,2.0292,2.0276,2.0276,2.0276,2.0256,2.0257,2.025,2.024,2.0244,2.0245,2.0238,2.0256,2.0247,2.0249,2.0249,2.0252,2.0256,2.0259,2.0217,2.0217,2.0217,0,0,2.0331,2.0325,2.033,2.0325,2.0317,2.0308,2.031,2.0298,2.0293,2.0294,2.028,2.0279,2.0273,2.0267,2.0264,2.0284,2.0272,2.0282,2.0299,2.0303,2.0306,2.0309,2.0317,2.032,2.0284,2.0284,2.0284,0,2.0344,2.0345,2.0333,2.0335,2.0333,2.0317,2.0322,2.0317,2.0308,2.0306,2.0299,2.0293,2.0284,2.0288,2.0293,2.029,2.0291,2.0284,2.0307,2.0309,2.0311,2.0319,2.0322,2.0285,2.0285,2.0285,2.0285,0,2.0363,2.0364,2.0368,2.0362,2.036,2.0364,2.0352,2.0351,2.0343,2.0335,2.0337,2.0327,2.0322,2.0322,2.0312,2.0324,2.0321,2.031,2.0296,2.0317,2.0324,2.0327,2.0287,2.0287,2.0286,2.0286,0,0,2.0393,2.0382,2.0384,2.0382,2.0373,2.0373,2.0376,2.0373,2.0373,2.0368,2.037,2.0367,2.0358,2.0354,2.0344,2.0348,2.0366,2.0337,2.0336,2.0344,2.038,2.0389,2.0393,2.0358,2.0359,2.0359,2.0382,0,2.0412,2.0418,2.0408,2.0416,2.0417,2.0403,2.0405,2.04,2.0393,2.0393,2.0385,2.0383,2.0371,2.0369,2.0372,2.0363,2.0373,2.0361,2.0361,2.0361,2.0365,2.0396,2.0405,2.0426,2.0384,2.0385,2.0385,0,2.0434,2.0432,2.0441,2.0434,2.0434,2.0437,2.0434,2.0433,2.0428,2.0422,2.0419,2.0409,2.0411,2.0398,2.0401,2.0393,2.0393,2.0388,2.0389,2.0389,2.0375,2.0398,2.0433,2.0436,2.0389,2.0389,2.0388,0,2.0457,2.0457,2.0462,2.0461,2.0452,2.0455,2.0451,2.0445,2.0444,2.0441,2.0441,2.0437,2.0435,2.0433,2.0422,2.0413,2.0427,2.0413,2.0423,2.0424,2.0427,2.0427,2.0463,2.0425,2.0425,2.0425,2.0425,0,2.0479,2.0486,2.0473,2.0477,2.0484,2.0472,2.0479,2.0474,2.0469,2.0471,2.0457,2.0459,2.0444,2.0445,2.0436,2.0441,2.044,2.0436,2.0433,2.0438,2.0438,2.0437,2.0436,2.0426,2.0426,2.0426,2.0425,0,2.0507,2.0498,2.0504,2.0496,2.0495,2.05,2.0493,2.0496,2.0489,2.0493,2.0493,2.0481,2.0482,2.047,2.0467,2.0461,2.0471,2.0465,2.0473,2.0472,2.0484,2.0484,2.0521,2.0526,2.0484,2.0484,2.0485,0,2.0522,2.0527,2.052,2.0522,2.052,2.0521,2.0521,2.051,2.0511,2.0506,2.051,2.0509,2.0508,2.0509,2.05,2.0499,2.0493,2.0507,2.0493,2.0498,2.0495,2.0496,2.0497,2.051,2.051,2.0511,2.0511,0,2.055,2.0546,2.0547,2.0548,2.0549,2.0548,2.0546,2.0548,2.0536,2.0537,2.0538,2.0538,2.0536,2.0536,2.0533,2.0529,2.0518,2.0516,2.0518,2.0523,2.0528,2.0527,2.0483,2.0515,2.0515,2.0514,2.0514,2.0514,2.0572,2.0577,2.0574,2.0576,2.0574,2.0574,2.0577,2.0572,2.0573,2.0572,2.0565,2.0568,2.0563,2.0559,2.0555,2.0557,2.055,2.0554,2.0555,2.0556,2.0559,2.0528,2.0556,2.0556,2.0556,2.0556,2.0556,0,2.0601,2.0599,2.0602,2.0601,2.0603,2.0594,2.0593,2.0595,2.0598,2.0595,2.0595,2.0598,2.0598,2.059,2.059,2.0593,2.0588,2.0593,2.0593,2.0593,2.0564,2.0563,2.0597,2.0597,2.0597,2.0597,2.0597,2.0597,2.0616,2.0625,2.0621,2.0628,2.0626,2.063,2.063,2.0629,2.0627,2.0631,2.0632,2.0628,2.0623,2.0623,2.0623,2.062,2.0621,2.0628,2.0625,2.0598,2.0594,2.0591,2.0589,2.0628,2.0628,2.0653,2.0653,2.0653]}]]